FW4751 Weather Reports


Display with metric or nautical units.
time (UTC)temp
F
wind
direction
speed
MPH
gust
MPH
rain 1hr
in
rain 24hr
in
rain mn
in
humidity
%
barometer
mb
20260902191509 77 248 2.0 5.0 0.00 0.00 0.00 54 1017.7
20260902191029 77 225 3.0 7.0 0.00 0.00 0.00 55 1017.7
20260902190508 77 225 2.0 6.0 0.00 0.00 0.00 53 1017.6
20260902190009 78 270 1.0 4.0 0.00 0.00 0.00 54 1017.8
20260902185528 78 225 2.0 4.0 0.00 0.00 0.00 54 1017.6
20260902185008 78 225 1.0 5.0 0.00 0.00 0.00 53 1017.7
20260902184508 79 225 2.0 5.0 0.00 0.00 0.00 52 1017.7
20260902184008 78 225 2.0 5.0 0.00 0.00 0.00 54 1017.7
20260902183543 78 270 2.0 6.0 0.00 0.00 0.00 55 1017.7
20260902183006 77 225 2.0 5.0 0.00 0.00 0.00 54 1017.8
20260902182503 77 225 2.0 6.0 0.00 0.00 0.00 55 1017.7
20260902182004 77 225 2.0 5.0 0.00 0.00 0.00 55 1017.7
20260902181508 77 225 1.0 4.0 0.00 0.00 0.00 55 1017.9
20260902181008 77 225 1.0 4.0 0.00 0.00 0.00 55 1017.7
20260902180508 77 270 1.0 4.0 0.00 0.00 0.00 55 1017.7
20260902180005 77 225 2.0 5.0 0.00 0.00 0.00 56 1017.7
20260902175508 76 315 1.0 3.0 0.00 0.00 0.00 57 1017.6
20260902175003 76 315 1.0 2.0 0.00 0.00 0.00 56 1017.7
20260902174508 77 338 1.0 4.0 0.00 0.00 0.00 55 1017.6
20260902174008 77 158 1.0 4.0 0.00 0.00 0.00 54 1017.7
20260902173528 77 203 1.0 3.0 0.00 0.00 0.00 55 1017.6
20260902173028 77 180 2.0 7.0 0.00 0.00 0.00 54 1017.6
20260902172508 77 0 2.0 7.0 0.00 0.00 0.00 55 1017.5
20260902172008 77 203 1.0 5.0 0.00 0.00 0.00 55 1017.6
20260902171503 77 113 2.0 5.0 0.00 0.00 0.00 55 1017.5
20260902171008 76 135 1.0 3.0 0.00 0.00 0.00 55 1017.6
20260902170508 76 158 2.0 5.0 0.00 0.00 0.00 56 1017.5
20260902170008 75 180 1.0 3.0 0.00 0.00 0.00 58 1017.6
20260902165508 74 135 1.0 3.0 0.00 0.00 0.00 59 1017.6
20260902165008 74 158 1.0 3.0 0.00 0.00 0.00 59 1017.6
20260902164503 73 135 1.0 3.0 0.00 0.00 0.00 61 1017.6
20260902164003 72 270 1.0 3.0 0.00 0.00 0.00 61 1017.6
20260902163508 72 135 1.0 2.0 0.00 0.00 0.00 63 1017.5
20260902163008 70 135 1.0 3.0 0.00 0.00 0.00 64 1017.3
20260902162508 69 135 1.0 4.0 0.00 0.00 0.00 65 1017.4
20260902162008 69 135 1.0 3.0 0.00 0.00 0.00 66 1017.5
20260902161508 68 113 1.0 4.0 0.00 0.00 0.00 68 1017.5
20260902161003 67 180 1.0 3.0 0.00 0.00 0.00 69 1017.5
20260902160510 66 180 1.0 2.0 0.00 0.00 0.00 71 1017.6
20260902160007 65 180 1.0 3.0 0.00 0.00 0.00 72 1017.6
20260902155505 64 135 1.0 2.0 0.00 0.00 0.00 73 1017.8
20260902155030 64 180 1.0 2.0 0.00 0.00 0.00 75 1017.8
20260902154510 63 180 1.0 2.0 0.00 0.00 0.00 75 1017.7
20260902154008 62 203 1.0 2.0 0.00 0.00 0.00 75 1017.7
20260902153525 62 203 1.0 3.0 0.00 0.00 0.00 76 1017.6
20260902153005 61 203 1.0 2.0 0.00 0.00 0.00 77 1017.6
20260902152510 61 158 1.0 2.0 0.00 0.00 0.00 78 1017.6
20260902152010 60 270 1.0 2.0 0.00 0.00 0.00 78 1017.6
20260902151510 60 135 1.0 2.0 0.00 0.00 0.00 78 1017.5
20260902151025 60 0.0 2.0 0.00 0.00 0.00 78 1017.4
20260902150530 60 0.0 1.0 0.00 0.00 0.00 78 1017.4
20260902150010 59 0.0 1.0 0.00 0.00 0.00 78 1017.3
20260902145510 59 0.0 2.0 0.00 0.00 0.00 78 1017.2
20260902145009 59 0.0 1.0 0.00 0.00 0.00 78 1017.1
20260902144505 59 0.0 1.0 0.00 0.00 0.00 78 1017.1
20260902144005 59 0.0 1.0 0.00 0.00 0.00 78 1017.2
20260902143510 59 0.0 1.0 0.00 0.00 0.00 78 1017.5
20260902143005 59 0.0 1.0 0.00 0.00 0.00 78 1017.3
20260902142510 59 0.0 1.0 0.00 0.00 0.00 78 1017.3
20260902142010 59 0.0 2.0 0.00 0.00 0.00 78 1017.2
20260902141510 59 0.0 2.0 0.00 0.00 0.00 78 1017.2
20260902141010 59 0.0 2.0 0.00 0.00 0.00 78 1017.1
20260902140509 59 0.0 1.0 0.00 0.00 0.00 78 1017.1
20260902140029 59 0.0 1.0 0.00 0.00 0.00 78 1017.0
20260902135504 59 0.0 1.0 0.00 0.00 0.00 78 1017.0
20260902135030 59 0.0 1.0 0.00 0.00 0.00 78 1016.9
20260902134504 59 0.0 1.0 0.00 0.00 0.00 78 1016.9
20260902133504 59 0.0 1.0 0.00 0.00 0.00 78 1016.8
20260902133006 59 0.0 2.0 0.00 0.00 0.00 78 1016.6
20260902132510 59 0.0 1.0 0.00 0.00 0.00 78 1016.8
20260902132004 59 0.0 2.0 0.00 0.00 0.00 78 1016.8
20260902131510 59 0.0 1.0 0.00 0.00 0.00 78 1016.9
20260902131004 59 0.0 1.0 0.00 0.00 0.00 78 1016.9
20260902130505 59 0.0 1.0 0.00 0.00 0.00 78 1016.9
20260902130029 59 0.0 1.0 0.00 0.00 0.00 78 1016.7
20260902125505 58 158 1.0 2.0 0.00 0.00 0.00 79 1016.8
20260902125009 58 180 1.0 2.0 0.00 0.00 0.00 79 1016.8
20260902124605 58 0.0 2.0 0.00 0.00 0.00 79 1016.8
20260902124004 58 0.0 2.0 0.00 0.00 0.00 79 1016.9
20260902123509 58 0.0 2.0 0.00 0.00 0.00 80 1016.9
20260902123005 58 203 1.0 2.0 0.00 0.00 0.00 80 1017.0
20260902122509 58 135 1.0 2.0 0.00 0.00 0.00 80 1016.8
20260902122005 58 0.0 2.0 0.00 0.00 0.00 80 1016.9
20260902121509 58 0.0 1.0 0.00 0.00 0.00 80 1016.7
20260902121029 57 0.0 1.0 0.00 0.00 0.00 80 1016.7
20260902120510 57 0.0 1.0 0.00 0.00 0.00 80 1016.7
20260902120044 57 0.0 2.0 0.00 0.00 0.00 80 1016.7
20260902115509 57 0.0 2.0 0.00 0.00 0.00 81 1016.6
20260902115009 57 0.0 2.0 0.00 0.00 0.00 81 1016.7
20260902114504 57 0.0 1.0 0.00 0.00 0.00 81 1016.6
20260902114004 57 0.0 1.0 0.00 0.00 0.00 82 1016.7
20260902113504 57 158 1.0 3.0 0.00 0.00 0.00 82 1016.6
20260902113004 57 135 1.0 2.0 0.00 0.00 0.00 82 1016.8
20260902112509 57 0.0 2.0 0.00 0.00 0.00 83 1016.9
20260902112030 56 158 1.0 2.0 0.00 0.00 0.00 83 1016.9
20260902111510 56 135 1.0 3.0 0.00 0.00 0.00 83 1017.0
20260902111029 56 180 1.0 2.0 0.00 0.00 0.00 83 1017.1
20260902110509 56 135 1.0 2.0 0.00 0.00 0.00 83 1017.0
20260902110007 56 135 1.0 2.0 0.00 0.00 0.00 83 1017.1
20260902105504 56 0.0 1.0 0.00 0.00 0.00 83 1017.2
20260902105004 56 0.0 1.0 0.00 0.00 0.00 83 1017.2
20260902104504 56 0.0 1.0 0.00 0.00 0.00 83 1017.2
20260902104010 56 0.0 1.0 0.00 0.00 0.00 83 1017.2
20260902103509 56 0.0 1.0 0.00 0.00 0.00 83 1017.2
20260902103010 56 0.0 1.0 0.00 0.00 0.00 83 1017.0
20260902102524 56 0.0 1.0 0.00 0.00 0.00 83 1017.1
20260902102009 56 0.0 1.0 0.00 0.00 0.00 83 1017.0
20260902101504 56 0.0 1.0 0.00 0.00 0.00 83 1016.9
20260902101005 56 0.0 1.0 0.00 0.00 0.00 83 1016.9
20260902100504 56 0.0 0.0 0.00 0.00 0.00 83 1016.9
20260902100024 56 0.0 1.0 0.00 0.00 0.00 83 1017.0
20260902095504 56 0.0 1.0 0.00 0.00 0.00 83 1017.0
20260902095004 56 0.0 1.0 0.00 0.00 0.00 83 1017.0
20260902094504 56 0.0 1.0 0.00 0.00 0.00 83 1017.1
20260902094025 56 0.0 0.0 0.00 0.00 0.00 83 1017.1
20260902093529 56 0.0 1.0 0.00 0.00 0.00 83 1017.0
20260902093024 56 0.0 1.0 0.00 0.00 0.00 83 1017.0
20260902092504 56 0.0 1.0 0.00 0.00 0.00 83 1016.9
20260902092024 57 0.0 0.0 0.00 0.00 0.00 83 1017.0
20260902091509 57 0.0 1.0 0.00 0.00 0.00 83 1017.0
20260902091009 57 0.0 1.0 0.00 0.00 0.00 83 1017.0
20260902090509 57 0.0 1.0 0.00 0.00 0.00 83 1017.0
20260902090005 57 0.0 1.0 0.00 0.00 0.00 83 1017.0
20260902085504 57 0.0 1.0 0.00 0.00 0.00 83 1016.9
20260902085004 57 0.0 1.0 0.00 0.00 0.00 82 1017.0
20260902084504 57 0.0 1.0 0.00 0.00 0.00 82 1017.1
20260902084004 57 0.0 1.0 0.00 0.00 0.00 82 1017.2
20260902083504 57 0.0 1.0 0.00 0.00 0.00 82 1017.1
20260902083024 57 0.0 1.0 0.00 0.00 0.00 82 1017.3
20260902082525 57 0.0 1.0 0.00 0.00 0.00 82 1017.1
20260902082024 57 0.0 1.0 0.00 0.00 0.00 82 1017.0
20260902081504 57 0.0 1.0 0.00 0.00 0.00 82 1017.0
20260902081004 57 0.0 1.0 0.00 0.00 0.00 82 1016.9
20260902080524 57 0.0 1.0 0.00 0.00 0.00 81 1017.1
20260902080004 57 0.0 0.0 0.00 0.00 0.00 81 1017.0
20260902075504 57 0.0 1.0 0.00 0.00 0.00 81 1017.1
20260902075024 58 0.0 1.0 0.00 0.00 0.00 81 1017.1
20260902074504 58 0.0 1.0 0.00 0.00 0.00 81 1017.1
20260902074044 58 0.0 1.0 0.00 0.00 0.00 80 1017.0
20260902073504 58 0.0 1.0 0.00 0.00 0.00 80 1017.0
20260902073009 58 0.0 1.0 0.00 0.00 0.00 80 1017.0
20260902072504 58 0.0 1.0 0.00 0.00 0.00 80 1017.1
20260902072024 58 0.0 1.0 0.00 0.00 0.00 80 1017.1
20260902071504 58 0.0 1.0 0.00 0.00 0.00 80 1017.1
20260902071024 58 0.0 0.0 0.00 0.00 0.00 80 1017.2
20260902070505 59 0.0 1.0 0.00 0.00 0.00 79 1017.1
20260902070006 59 0.0 1.0 0.00 0.00 0.00 79 1017.0
20260902065544 59 0.0 1.0 0.00 0.00 0.00 79 1017.2
20260902065004 59 0.0 1.0 0.00 0.00 0.00 79 1017.2
20260902064503 59 0.0 1.0 0.00 0.00 0.00 79 1017.1
20260902064009 59 0.0 1.0 0.00 0.00 0.00 79 1017.0
20260902063504 59 0.0 1.0 0.00 0.00 0.00 78 1017.1
20260902063008 59 0.0 1.0 0.00 0.00 0.00 78 1017.0
20260902062504 60 0.0 1.0 0.00 0.00 0.00 78 1017.0
20260902062004 60 0.0 1.0 0.00 0.00 0.00 78 1017.0
20260902061523 60 0.0 1.0 0.00 0.00 0.00 78 1016.9
20260902061006 60 0.0 1.0 0.00 0.00 0.00 77 1016.9
20260902060503 60 0.0 1.0 0.00 0.00 0.00 77 1016.9
20260902060003 60 0.0 1.0 0.00 0.00 0.00 76 1016.7
20260902055503 61 0.0 1.0 0.00 0.00 0.00 76 1016.8
20260902055003 61 0.0 1.0 0.00 0.00 0.00 76 1016.8
20260902054504 61 0.0 1.0 0.00 0.00 0.00 76 1016.9
20260902054008 61 0.0 1.0 0.00 0.00 0.00 76 1016.9
20260902053503 61 0.0 1.0 0.00 0.00 0.00 75 1017.0
20260902053008 61 0.0 1.0 0.00 0.00 0.00 75 1017.1
20260902052503 62 0.0 1.0 0.00 0.00 0.00 75 1017.2
20260902052008 62 0.0 0.0 0.00 0.00 0.00 75 1017.3
20260902051503 62 0.0 1.0 0.00 0.00 0.00 75 1017.3
20260902051028 62 0.0 1.0 0.00 0.00 0.00 75 1017.5
20260902050528 62 0.0 2.0 0.00 0.00 0.00 74 1017.4
20260902050009 62 0.0 2.0 0.00 0.00 0.00 74 1017.4
20260902045509 62 0.0 1.0 0.00 0.00 0.00 74 1017.3
20260902045008 63 0.0 1.0 0.00 0.00 0.00 73 1017.2
20260902044503 63 0.0 1.0 0.00 0.00 0.00 74 1017.2
20260902044008 63 315 1.0 2.0 0.00 0.00 0.00 74 1017.3
20260902043504 63 0.0 2.0 0.00 0.00 0.00 73 1017.1
20260902043004 63 0.0 1.0 0.00 0.00 0.00 73 1017.2
20260902042508 63 315 1.0 4.0 0.00 0.00 0.00 73 1017.2
20260902042008 63 315 1.0 2.0 0.00 0.00 0.00 73 1017.2
20260902041508 63 315 1.0 3.0 0.00 0.00 0.00 73 1017.1
20260902041024 63 315 1.0 4.0 0.00 0.00 0.00 73 1017.0
20260902040503 63 315 1.0 7.0 0.00 0.00 0.00 73 1016.8
20260902040008 63 315 1.0 3.0 0.00 0.00 0.00 73 1016.9
20260902035508 64 248 1.0 4.0 0.00 0.00 0.00 72 1016.8
20260902035008 64 270 1.0 3.0 0.00 0.00 0.00 72 1016.7
20260902034503 64 293 1.0 3.0 0.00 0.00 0.00 72 1016.7
20260902034003 64 248 2.0 5.0 0.00 0.00 0.00 72 1016.7
20260902033508 64 315 1.0 3.0 0.00 0.00 0.00 72 1016.7
20260902033003 64 248 2.0 6.0 0.00 0.00 0.00 71 1016.6
20260902032503 64 315 2.0 5.0 0.00 0.00 0.00 71 1016.4
20260902032008 64 248 2.0 6.0 0.00 0.00 0.00 70 1016.5
20260902031508 64 248 1.0 4.0 0.00 0.00 0.00 70 1016.4
20260902031003 65 315 1.0 4.0 0.00 0.00 0.00 69 1016.4
20260902030508 65 248 2.0 6.0 0.00 0.00 0.00 69 1016.4
20260902030026 65 248 1.0 7.0 0.00 0.00 0.00 68 1016.3
20260902025508 65 270 2.0 4.0 0.00 0.00 0.00 68 1016.4
20260902025003 65 315 1.0 5.0 0.00 0.00 0.00 67 1016.3
20260902024523 65 270 1.0 6.0 0.00 0.00 0.00 66 1016.3
20260902024008 66 315 2.0 6.0 0.00 0.00 0.00 66 1016.3
20260902023508 66 248 2.0 5.0 0.00 0.00 0.00 65 1016.2
20260902023008 66 293 1.0 4.0 0.00 0.00 0.00 64 1016.1
20260902022508 67 248 2.0 6.0 0.00 0.00 0.00 63 1016.1
20260902022003 67 248 2.0 7.0 0.00 0.00 0.00 62 1016.1
20260902021508 67 293 2.0 6.0 0.00 0.00 0.00 61 1016.1
20260902021003 68 315 3.0 8.0 0.00 0.00 0.00 60 1016.1
20260902020508 68 225 2.0 5.0 0.00 0.00 0.00 59 1016.1
20260902020008 69 248 2.0 7.0 0.00 0.00 0.00 59 1016.0
20260902015523 69 270 2.0 5.0 0.00 0.00 0.00 58 1016.0
20260902015003 69 248 2.0 5.0 0.00 0.00 0.00 57 1016.0
20260902014528 70 315 2.0 8.0 0.00 0.00 0.00 56 1016.0
20260902014010 70 293 2.0 5.0 0.00 0.00 0.00 54 1016.0
20260902013525 70 225 1.0 4.0 0.00 0.00 0.00 54 1015.9
20260902013003 70 315 2.0 11.0 0.00 0.00 0.00 53 1016.1
20260902012530 71 293 2.0 6.0 0.00 0.00 0.00 53 1016.0
20260902012010 71 248 3.0 8.0 0.00 0.00 0.00 52 1015.9
20260902011510 72 315 2.0 6.0 0.00 0.00 0.00 52 1015.9
20260902011005 72 293 1.0 3.0 0.00 0.00 0.00 52 1015.8
20260902010510 72 315 1.0 5.0 0.00 0.00 0.00 52 1015.9
20260902010010 72 315 2.0 7.0 0.00 0.00 0.00 51 1015.8
20260902005509 72 315 2.0 5.0 0.00 0.00 0.00 52 1015.8
20260902005005 72 248 2.0 7.0 0.00 0.00 0.00 52 1016.0
20260902004509 72 315 2.0 6.0 0.00 0.00 0.00 51 1015.8
20260902004030 73 248 3.0 7.0 0.00 0.00 0.00 51 1015.9
20260902003510 73 248 2.0 7.0 0.00 0.00 0.00 51 1015.8
20260902003009 73 248 2.0 5.0 0.00 0.00 0.00 51 1015.8
20260902002525 73 315 2.0 7.0 0.00 0.00 0.00 50 1015.9
20260902002010 73 315 2.0 7.0 0.00 0.00 0.00 50 1015.8
20260902001510 74 315 2.0 7.0 0.00 0.00 0.00 49 1015.7
20260902001009 74 315 2.0 5.0 0.00 0.00 0.00 49 1015.8
20260902000509 74 338 2.0 7.0 0.00 0.00 0.00 49 1015.9
20260902000030 74 315 2.0 5.0 0.00 0.00 0.00 49 1015.8
20260901235505 73 293 2.0 6.0 0.00 0.00 0.00 49 1015.9
20260901235004 74 315 3.0 6.0 0.00 0.00 0.00 48 1015.8
20260901234510 74 315 3.0 9.0 0.00 0.00 0.00 47 1015.8
20260901234004 75 315 2.0 8.0 0.00 0.00 0.00 47 1015.9
20260901233509 75 315 3.0 7.0 0.00 0.00 0.00 46 1015.9
20260901233009 75 315 2.0 5.0 0.00 0.00 0.00 45 1015.8
20260901232510 75 315 2.0 5.0 0.00 0.00 0.00 46 1015.7
20260901232007 75 315 2.0 8.0 0.00 0.00 0.00 45 1015.7
20260901231529 75 315 2.0 6.0 0.00 0.00 0.00 46 1015.8
20260901231005 75 0 3.0 8.0 0.00 0.00 0.00 46 1015.8
20260901230504 76 315 2.0 7.0 0.00 0.00 0.00 45 1015.8
20260901230029 76 315 2.0 5.0 0.00 0.00 0.00 45 1015.7
20260901225509 76 315 2.0 4.0 0.00 0.00 0.00 45 1015.7
20260901225010 75 315 2.0 5.0 0.00 0.00 0.00 45 1015.7
20260901224509 75 315 2.0 7.0 0.00 0.00 0.00 46 1015.6
20260901224004 75 315 3.0 7.0 0.00 0.00 0.00 46 1015.6
20260901223509 74 315 2.0 5.0 0.00 0.00 0.00 47 1015.6
20260901223005 74 315 2.0 6.0 0.00 0.00 0.00 48 1015.5
20260901222505 72 338 2.0 7.0 0.00 0.00 0.00 51 1015.7
20260901222004 71 45 2.0 6.0 0.00 0.00 0.00 54 1015.6
20260901221509 71 45 3.0 8.0 0.00 0.00 0.00 56 1015.7
20260901221024 70 45 3.0 7.0 0.00 0.00 0.00 57 1015.7
20260901220504 70 45 3.0 6.0 0.00 0.00 0.00 57 1015.9
20260901220009 70 45 3.0 7.0 0.00 0.00 0.00 56 1015.9
20260901215510 71 23 4.0 8.0 0.00 0.00 0.00 56 1016.0
20260901215029 71 23 3.0 6.0 0.00 0.00 0.00 56 1015.9
20260901214510 71 45 3.0 7.0 0.00 0.00 0.00 56 1016.0
20260901214025 71 23 3.0 7.0 0.00 0.00 0.00 55 1016.0
20260901213524 71 23 3.0 8.0 0.00 0.00 0.00 55 1016.0
20260901213004 71 45 3.0 6.0 0.00 0.00 0.00 55 1016.0
20260901212509 71 45 2.0 6.0 0.00 0.00 0.00 54 1016.1
20260901212004 71 45 2.0 6.0 0.00 0.00 0.00 54 1016.2
20260901211504 71 23 2.0 5.0 0.00 0.00 0.00 53 1016.2
20260901211029 72 45 2.0 6.0 0.00 0.00 0.00 54 1016.3
20260901210544 72 45 2.0 6.0 0.00 0.00 0.00 53 1016.3
20260901210009 72 45 2.0 4.0 0.00 0.00 0.00 53 1016.0
20260901205505 73 45 2.0 5.0 0.00 0.00 0.00 52 1016.2
20260901205004 74 45 2.0 7.0 0.00 0.00 0.00 52 1016.1
20260901204509 74 45 2.0 5.0 0.00 0.00 0.00 52 1016.1
20260901204029 73 113 2.0 5.0 0.00 0.00 0.00 54 1016.1
20260901203504 72 45 1.0 4.0 0.00 0.00 0.00 56 1016.2
20260901203004 71 45 2.0 5.0 0.00 0.00 0.00 56 1016.4
20260901202544 71 45 1.0 4.0 0.00 0.00 0.00 58 1016.6
20260901202007 70 45 2.0 5.0 0.00 0.00 0.00 57 1016.7
20260901201524 70 45 2.0 3.0 0.00 0.00 0.00 57 1016.7
20260901201004 70 45 2.0 5.0 0.00 0.00 0.00 57 1016.8
20260901200504 70 45 2.0 5.0 0.00 0.00 0.00 57 1016.9
20260901200004 70 0 1.0 4.0 0.00 0.00 0.00 57 1016.9
20260901195504 70 45 2.0 5.0 0.00 0.00 0.00 57 1016.9
20260901195004 70 23 2.0 5.0 0.00 0.00 0.00 57 1016.9
20260901194509 70 45 2.0 5.0 0.00 0.00 0.00 56 1016.8
20260901194004 70 45 2.0 5.0 0.00 0.00 0.00 55 1016.9
20260901193504 71 0 2.0 6.0 0.00 0.00 0.00 54 1017.0
20260901193004 72 293 1.0 2.0 0.00 0.00 0.00 53 1017.0
20260901192504 71 158 2.0 4.0 0.00 0.00 0.00 53 1016.9
20260901192004 70 225 1.0 3.0 0.00 0.00 0.00 55 1016.9